Regional Weather Roundup
Issued by NWS Charleston, SC

Current Version | Previous Version | Graphics & Text | Print | Product List | Glossary On
Versions: 1 2 3 4 5 6 7 8 9 10 11 12 13 14 15 16 17 18 19 20 21 22 23 24 25 26 27 28 29 30 31 32 33 34 35 36 37 38 39 40 41 42 43 44 45 46 47 48 49 50
000
ASUS42 KCHS 080427
RWRCHS

REGIONAL WEATHER ROUNDUP
NATIONAL WEATHER SERVICE CHARLESTON SC
1100 PM EST SUN FEB 07 2016

NOTE: "FAIR" INDICATES FEW OR NO CLOUDS BELOW 12,000 FEET WITH NO
SIGNIFICANT WEATHER AND/OR OBSTRUCTIONS TO VISIBILITY.

NOT ALL STATIONS ARE QUALITY CONTROLLED BY THE NATIONAL
WEATHER SERVICE. USE DATA WITH CAUTION...ESPECIALLY
DEWPOINT OBSERVATIONS.

NOTICE: OBSERVATIONS FOR THE SAVANNAH-HILTON HEAD INTERNATIONAL AIRPORT
/KSAV/ HAVE BEEN TEMPORARILY REMOVED DUE TO AN ERRONEOUS TEMPERATURE
SENSOR. THE OBSERVATION WILL BE REINTRODUCED ONCE REPAIRS ARE COMPLETE.

SCZ027-030-031-034>040-042>050-080500-
...SOUTHEAST SOUTH CAROLINA...

CITY           SKY/WX    TMP DP  RH WIND       PRES   REMARKS
N CHARLESTON   CLEAR     43  26  51 W7        29.94R
WATERFRONT PRK   N/A     45  30  55 NW5       29.78S
MOUNT PLEASANT FAIR      43  32  65 W3        29.93S
JOHNS ISLAND   FAIR      39  30  70 W6        29.94S WCI  35
PINOPOLIS        N/A     48  34  57 NW12      29.85R
MONCKS CORNER  FAIR      36  27  69 CALM      29.92F
SUMMERVILLE    NOT AVBL
BEAUFORT MCAS  CLEAR     36  32  85 SW7       29.97S WCI  30
BEAUFORT ARPT  FAIR      37  34  87 W3        29.96F
HILTON HEAD IS CLEAR    N/A N/A N/A SW3       29.98F
WALTERBORO     CLEAR     36  32  87 CALM      29.96S
ALLENDALE      FAIR      36  34  93 CALM      29.96S

...SOUTHERN MIDLANDS AND PEE DEE...

CITY           SKY/WX    TMP DP  RH WIND       PRES   REMARKS
GEORGETOWN     NOT AVBL
KINGSTREE      NOT AVBL
ORANGEBURG     CLEAR     36  32  85 SW3       29.93F
BARNWELL       FAIR      34  32  93 CALM      29.96R
AIKEN          FAIR      34  28  80 S3        29.97R
MANNING        FAIR      36  27  69 CALM      29.92F
COLUMBIA       CLEAR     32  27  81 W6        29.93F WCI  26
SUMTER         CLEAR     38  26  61 W6        29.89F WCI  34
FLORENCE       CLOUDY    41  26  55 NW7       29.89F
MYRTLE BEACH   MOCLDY    45  25  45 NW15G21   29.87R
N MYRTLE BEACH MOCLDY    43  27  53 NW14G20   29.81R

$$

GAZ063-065-086>088-099>101-113>116-118-119-134>141-150-080500-
...SOUTHEAST GEORGIA...

CITY           SKY/WX    TMP DP  RH WIND       PRES   REMARKS
SAVANNAH ARPT  CLEAR     40  32  73 W3        29.99S
HUNTER AAF     CLEAR     37  33  87 SW2       29.96S
FORT STEWART   CLEAR     38  31  74 SW5       29.98S WCI  35
STATESBORO     CLEAR     45  28  52 W5        29.98R
SYLVANIA       CLEAR     38  33  83 CALM      29.98R
CLAXTON        FAIR      37  37 100 SW5       30.00R WCI  34

...CSRA...CENTRAL AND FAR SOUTHEAST GEORGIA...

CITY           SKY/WX    TMP DP  RH WIND       PRES   REMARKS
THOMSON        CLEAR     42  31  64 CALM      30.00S
AUGUSTA-BUSH   CLEAR     43  28  55 W9        29.94S
AUGUSTA-DANIEL CLEAR     49  23  36 W6        29.94S
SWAINSBORO     FAIR      34  32  93 CALM      30.00R
VIDALIA        CLEAR     39  32  75 SW5       30.00S WCI  36
EASTMAN        FAIR      44  30  58 CALM      30.04S
HAZLEHURST     FAIR      43  32  64 SW5       30.01S
ALMA           CLEAR     37  32  82 CALM      30.03R
WAYCROSS       CLEAR     44  33  66 W6        30.03F
JESUP          FAIR      43  34  70 W3        30.03R
BAXLEY         FAIR      43  32  65 CALM      30.02S
BRUNSWICK      CLEAR     43  32  65 W6        30.03S
SAINT SIMONS   CLEAR     45  33  63 W7        30.02S

$$

SCZ027-028-034-036>038-045-046-048>050-GAZ119-141-080500-
...LAKE AND SUPPLEMENTAL COASTAL OBSERVATIONS...

STATION/POSITION TIME  TEMP    WIND        PRES    WAVE   SWELL
                       AIR SEA DIR/SP/G            HT/PER HT/PER/DIR
                 (UTC) (F)     (DEG/KT/KT) (MB)    (FT/S) (FT/S/D)
WINYAH BAY       0300   43     300/ 10     1010.0
LAKE MURRAY      0400   42     280/  1/  4 1012.9F
ACE BASIN NERRS  0300   41        CALM     1014.0S
FORT PULASKI     0400   47 53  240/  5/  6 1015.5S
SAPELO ISLAND    0400   47     260/  6     1016.0S

$$

ANZ835-935-AMZ111-154-330-350-352-354-370-450-454-472-080500-
...C-MAN AND BUOY OBSERVATIONS...

STATION/POSITION TIME  TEMP    WIND        PRES    WAVE   SWELL
                       AIR SEA DIR/SP/G            HT/PER HT/PER/DIR
                 (UTC) (F)     (DEG/KT/KT) (MB)    (FT/S) (FT/S/D)
BUOY 41004       0350   52 66  320/ 27/ 33 1011.2R  10/ 6   3/17
BUOY 41008       0350   53 55  280/ 14/ 17 1016.0R   4/ 7   3/ 50/ 7
FOLLY BEACH CMAN 0400   42     280/  4/  6 1013.9R
CAPERS NEARSHORE 0308   47     310/ 17/ 23 1012.2R
FRIPP NEARSHORE  0300   49     310/ 12/ 14 1014.1R


STATION/POSITION TIME  TEMP    WIND        PRES    WAVE   SWELL
                       AIR SEA DIR/SP/G            HT/PER HT/PER/DIR
                 (UTC) (F)     (DEG/KT/KT) (MB)    (FT/S) (FT/S/D)
5E ST. MARYS GA  0321      56                N/A     4/13   2/ 80/13
FRYING PAN BUOY  0400   48 64  320/ 29/ 37 1007.4R
BUOY 41025       0350   51 70  360/ 43/ 52  993.0R  19/12  11/120/12
CAPE LOOKOUT NC  NOT AVBL
BUOY 41002       0350   58 69  300/ 45/ 58   N/A    28/14  21/310/14
BUOY 41010       0320   62 74              1014.3R
ST AUGUSTINE FL  0400   45 56  270/  6/  8 1019.0R


$$



USA.gov is the U.S. government's official web portal to all federal, state and local government web resources and services.